Location: Écuvilly
(49.6505°N, 2.9206°E)
Time: 06:03:46
(UTC+00:00)

ISS - Pass Details

Date: 17 November 2025
Orbit: 416 x 420 km, 51.6° (Epoch: 12 December)

Event Time Altitude Azimuth Distance (km) Brightness Sun altitude
Rises 17:07:45 0° 228° (SW) 2,362 1.4 -10.5°
Reaches altitude 10° 17:09:55 10° 220° (SW) 1,499 0.0 -10.8°
Maximum altitude 17:13:06 40° 150° (SSE) 634 -3.0 -11.3°
Enters shadow 17:15:10 19° 88° (E) 1,089 -2.3 -11.6°
